GW6267 Weather Reports


time (UTC)temp
C
wind
direction
speed
KPH
gust
KPH
rain 1hr
cm
rain 24hr
cm
rain mn
cm
humidity
%
barometer
mb
20260506135004 16 147 8.0 16.1 0.00 0.00 0.00 59 1029.7
20260506134004 16 148 8.0 16.1 0.00 0.00 0.00 59 1029.7
20260506133025 16 147 8.0 16.1 0.00 0.00 0.00 59 1029.7
20260506132005 17 146 6.4 17.7 0.00 0.00 0.00 59 1029.5
20260506131025 17 149 8.0 17.7 0.00 0.00 0.00 59 1029.4
20260506130025 17 150 6.4 14.5 0.00 0.00 0.00 59 1029.4
20260506125004 17 151 8.0 14.5 0.00 0.00 0.00 59 1029.3
20260506124025 17 150 6.4 14.5 0.00 0.00 0.00 60 1029.2
20260506123004 17 149 6.4 14.5 0.00 0.00 0.00 60 1029.3
20260506122025 17 151 4.8 11.3 0.00 0.00 0.00 61 1029.2
20260506121004 17 156 3.2 12.9 0.00 0.00 0.00 61 1029.0
20260506120004 17 152 1.6 4.8 0.00 0.00 0.00 62 1029.0
20260506115025 17 152 3.2 6.4 0.00 0.00 0.00 61 1028.9
20260506114005 17 146 3.2 6.4 0.00 0.00 0.00 61 1028.8
20260506113025 17 151 3.2 8.0 0.00 0.00 0.00 60 1028.9
20260506112025 17 149 3.2 8.0 0.00 0.00 0.00 60 1028.7
20260506111004 17 150 4.8 9.7 0.00 0.00 0.00 60 1028.7
20260506110004 18 148 3.2 9.7 0.00 0.00 0.00 59 1028.6
20260506105004 18 150 4.8 11.3 0.00 0.00 0.00 59 1028.6
20260506104025 18 150 4.8 9.7 0.00 0.00 0.00 59 1028.5
20260506103004 18 150 1.6 8.0 0.00 0.00 0.00 59 1028.4
20260506102025 18 150 3.2 8.0 0.00 0.00 0.00 57 1028.4
20260506101004 19 150 3.2 8.0 0.00 0.00 0.00 55 1028.2
20260506100004 20 147 6.4 11.3 0.00 0.00 0.00 53 1028.2
20260506095004 20 134 4.8 9.7 0.00 0.00 0.00 52 1028.1
20260506094004 20 141 6.4 16.1 0.00 0.00 0.00 52 1027.9
20260506093004 20 137 6.4 11.3 0.00 0.00 0.00 52 1027.8
20260506092025 21 135 6.4 14.5 0.00 0.00 0.00 51 1027.7
20260506091004 21 141 8.0 17.7 0.00 0.00 0.00 50 1027.7
20260506090004 21 135 8.0 16.1 0.00 0.00 0.00 50 1027.7
20260506085025 21 133 8.0 17.7 0.00 0.00 0.00 51 1027.6
20260506084004 21 148 8.0 19.3 0.00 0.00 0.00 50 1027.6
20260506083004 21 138 8.0 17.7 0.00 0.00 0.00 51 1027.6
20260506082004 21 123 8.0 22.5 0.00 0.00 0.00 50 1027.6
20260506081004 21 115 9.7 19.3 0.00 0.00 0.00 49 1027.6
20260506073025 22 137 9.7 25.7 0.00 0.00 0.00 50 1027.5
20260506072004 22 134 8.0 20.9 0.00 0.00 0.00 51 1027.5
20260506071004 22 144 9.7 17.7 0.00 0.00 0.00 50 1027.5
20260506062004 22 117 9.7 22.5 0.00 0.00 0.00 50 1027.6
20260506061004 21 127 9.7 22.5 0.00 0.00 0.00 51 1027.7
20260506051004 21 129 11.3 20.9 0.00 0.00 0.00 53 1027.9
20260506045004 21 113 11.3 25.7 0.00 0.00 0.00 52 1028.2
20260506044004 21 109 9.7 20.9 0.00 0.00 0.00 52 1028.2
20260506043004 21 108 12.9 22.5 0.00 0.00 0.00 52 1028.4
20260506042004 21 103 11.3 19.3 0.00 0.00 0.00 53 1028.6
20260506041004 21 112 11.3 20.9 0.00 0.00 0.00 54 1028.7
20260506040004 21 96 11.3 22.5 0.00 0.00 0.00 54 1028.8
20260506035004 21 116 9.7 19.3 0.00 0.00 0.00 55 1028.9
20260506034024 20 111 9.7 20.9 0.00 0.00 0.00 56 1029.0
20260506033004 20 108 11.3 22.5 0.00 0.00 0.00 56 1029.1
20260506032003 20 98 9.7 20.9 0.00 0.00 0.00 57 1029.2
20260506031003 19 83 11.3 25.7 0.00 0.00 0.00 59 1029.3
20260506030004 19 92 12.9 24.1 0.00 0.00 0.00 60 1029.4
20260506025004 18 99 12.9 24.1 0.00 0.00 0.00 61 1029.4
20260506024024 18 101 14.5 25.7 0.00 0.00 0.00 61 1029.4
20260506023024 18 89 12.9 24.1 0.00 0.00 0.00 61 1029.5
20260506022003 18 93 9.7 19.3 0.00 0.00 0.00 61 1029.6
20260506021003 18 112 8.0 19.3 0.00 0.00 0.00 62 1029.7
20260506020004 17 103 9.7 20.9 0.00 0.00 0.00 64 1029.7
20260506015024 17 102 8.0 16.1 0.00 0.00 0.00 65 1029.7
20260506014003 16 122 9.7 20.9 0.00 0.00 0.00 67 1029.7
20260506013024 16 125 9.7 20.9 0.00 0.00 0.00 68 1029.8
20260506012003 16 119 6.4 14.5 0.00 0.00 0.00 69 1029.7
20260506011003 15 114 8.0 16.1 0.00 0.00 0.00 71 1029.7
20260506010004 15 116 8.0 17.7 0.00 0.00 0.00 72 1029.7
20260506005003 15 114 8.0 19.3 0.00 0.00 0.00 72 1029.7
20260506004024 14 117 9.7 27.4 0.00 0.00 0.00 73 1029.6
20260506003024 14 127 11.3 19.3 0.00 0.00 0.00 74 1029.5
20260506002024 13 127 6.4 19.3 0.00 0.00 0.00 75 1029.4
20260506001003 13 128 8.0 17.7 0.00 0.00 0.00 75 1029.3
20260506000003 13 142 6.4 14.5 0.00 0.00 0.00 76 1029.2
20260505235003 13 139 6.4 14.5 0.00 0.00 0.00 77 1029.1
20260505234003 12 144 8.0 17.7 0.00 0.00 0.00 77 1029.0
20260505233004 12 148 6.4 14.5 0.00 0.00 0.00 78 1028.9
20260505232003 12 139 8.0 19.3 0.00 0.00 0.00 78 1028.6
20260505231003 12 126 8.0 16.1 0.00 0.00 0.00 78 1028.3
20260505230003 12 120 8.0 17.7 0.00 0.00 0.00 79 1028.2
20260505225003 12 122 6.4 14.5 0.00 0.00 0.00 79 1028.1
20260505224003 12 121 6.4 16.1 0.00 0.00 0.00 79 1028.1
20260505223024 12 127 6.4 17.7 0.00 0.00 0.00 79 1028.0
20260505222003 12 123 6.4 16.1 0.00 0.00 0.00 79 1027.9
20260505221024 12 134 4.8 12.9 0.00 0.00 0.00 78 1027.9
20260505220003 12 137 8.0 16.1 0.00 0.00 0.00 78 1027.9
20260505215003 12 142 6.4 20.9 0.00 0.00 0.00 78 1027.8
20260505214003 12 135 8.0 17.7 0.00 0.00 0.00 77 1027.7
20260505213003 12 128 8.0 14.5 0.00 0.00 0.00 77 1027.5
20260505212003 12 141 8.0 22.5 0.00 0.00 0.00 77 1027.5
20260505211003 13 142 8.0 17.7 0.00 0.00 0.00 76 1027.5
20260505210003 13 142 8.0 17.7 0.00 0.00 0.00 76 1027.4
20260505205003 13 144 9.7 19.3 0.00 0.00 0.00 76 1027.3
20260505204003 13 146 9.7 19.3 0.00 0.00 0.00 75 1027.3
20260505203003 13 147 9.7 20.9 0.00 0.00 0.00 75 1027.1
20260505202003 13 147 11.3 20.9 0.00 0.00 0.00 74 1027.1
20260505201003 13 147 11.3 19.3 0.00 0.00 0.00 74 1027.0
20260505200003 13 147 9.7 19.3 0.00 0.00 0.00 74 1027.1
20260505195003 13 147 9.7 19.3 0.00 0.00 0.00 73 1027.0
20260505194025 13 149 9.7 17.7 0.00 0.00 0.00 73 1027.0
20260505193025 13 147 8.0 16.1 0.00 0.00 0.00 73 1027.1
20260505192004 13 148 8.0 12.9 0.00 0.00 0.00 72 1027.1
20260505191004 13 144 6.4 12.9 0.00 0.00 0.00 72 1027.0
20260505190004 13 140 4.8 12.9 0.00 0.00 0.00 72 1026.9
20260505185004 13 148 6.4 12.9 0.00 0.00 0.00 71 1026.9
20260505184004 14 144 4.8 11.3 0.00 0.00 0.00 70 1027.0
20260505183004 14 143 6.4 12.9 0.00 0.00 0.00 70 1027.1
20260505182004 14 144 6.4 14.5 0.00 0.00 0.00 69 1027.1
20260505181004 14 139 8.0 16.1 0.00 0.00 0.00 69 1027.1
20260505180025 15 136 8.0 14.5 0.00 0.00 0.00 68 1027.0
20260505175004 15 141 8.0 17.7 0.00 0.00 0.00 68 1026.9
20260505174004 15 136 8.0 22.5 0.00 0.00 0.00 68 1026.9
20260505173004 15 137 8.0 20.9 0.00 0.00 0.00 68 1026.9
20260505172004 15 141 8.0 17.7 0.00 0.00 0.00 68 1026.8
20260505171004 15 144 8.0 16.1 0.00 0.00 0.00 68 1026.8
20260505170025 15 145 9.7 17.7 0.00 0.00 0.00 67 1026.8
20260505165004 15 146 11.3 22.5 0.00 0.00 0.00 66 1026.7
20260505164004 15 141 8.0 19.3 0.00 0.00 0.00 67 1026.6
20260505163025 15 148 6.4 14.5 0.00 0.00 0.00 67 1026.7
20260505162004 15 138 4.8 12.9 0.00 0.00 0.00 66 1026.6
20260505161025 15 144 8.0 14.5 0.00 0.00 0.00 66 1026.4
20260505153004 14 151 3.2 8.0 0.00 0.00 0.00 71 1026.5
20260505152004 14 153 1.6 6.4 0.00 0.00 0.00 72 1026.5
20260505151025 14 153 1.6 3.2 0.00 0.00 0.00 72 1026.4